Regional Weather Roundup
Issued by NWS

Home | Current Version | Previous Version | Graphics & Text | Print | Product List | Glossary On
Versions: 1 2 3 4 5 6 7 8 9 10 11 12 13 14 15 16 17 18 19 20 21 22 23 24 25 26 27 28 29 30 31 32 33 34 35 36 37 38 39 40 41 42 43 44 45 46 47 48 49 50
000
ASUS43 KLMK 032110
RWRKY
KENTUCKY REGIONAL WEATHER ROUNDUP
NATIONAL WEATHER SERVICE LOUISVILLE KY
500 PM EDT TUE MAY 03 2016

NOTE "FAIR" INDICATES FEW OR NO CLOUDS BELOW 12,000 FEET
WITH NO SIGNIFICANT WEATHER AND/OR OBSTRUCTIONS TO VISIBILITY.

KYZ001>023-026-027-061>063-070>075-032200-
WESTERN AND SOUTH CENTRAL KENTUCKY

CITY           SKY/WX    TMP DP  RH WIND       PRES   REMARKS
PADUCAH        CLOUDY    64  45  49 N8        29.96F
HENDERSON      CLOUDY    63  43  48 NW9       29.94S
OWENSBORO      CLOUDY    62  46  55 NW9       29.94F
HOPKINSVILLE   PTSUNNY   62  46  56 NW10      29.94F
BOWLING GREEN  CLOUDY    64  44  48 W10       29.93F
GLASGOW        CLOUDY    63  44  51 NW10      29.92F
$$

KYZ024-025-028>034-038-045-046-053-032200-
NORTH CENTRAL KENTUCKY

CITY           SKY/WX    TMP DP  RH WIND       PRES   REMARKS
LOUISVILLE/SDF CLOUDY    62  44  51 NW14      29.90S
LOUISVILLE/LOU CLOUDY    61  45  55 NW9       29.91S
FORT KNOX      CLOUDY    60  45  56 W10       29.89F
$$

KYZ035>037-039>044-047>052-055>060-089>105-032200-
NORTHEAST KENTUCKY

CITY           SKY/WX    TMP DP  RH WIND       PRES   REMARKS
LEXINGTON      CLOUDY    61  46  57 W9        29.89F
COVINGTON      CLOUDY    59  48  67 NW10      29.88S
FRANKFORT      CLOUDY    61  45  55 NW5       29.88F
$$

KYZ054-064>069-076>088-106>120-032200-
SOUTHEAST KENTUCKY

CITY           SKY/WX    TMP DP  RH WIND       PRES   REMARKS
JACKSON        CLOUDY    61  47  59 W10G18    29.88S
LONDON         CLOUDY    61  47  59 NW12G20   29.89S
SOMERSET       CLOUDY    61  46  59 W9        29.92S
MIDDLESBORO    PTSUNNY   66  49  55 NW12      29.87S
MONTICELLO     CLOUDY    63  50  62 NW10      29.92F
$$





USA.gov is the U.S. government's official web portal to all federal, state and local government web resources and services.